YAHSAT 1B

Last updated on Thu Sep 10 2026 00:02:57 GMT+0000 (Coordinated Universal Time)

1 38245U 12016A 26252.59502168 .00000106 00000+0 00000+0 0 9990 2 38245 0.0991 89.3319 0001447 76.8221 84.2954 1.00269962 46454
UTC large
Height (km)
Speed (km/s)
/
Latitude / Longitude
Inclination (degrees)
Orbital Period (minutes)
Azimuth
Elevation
Range (km)
Doppler Factor

Next 0 passes for location: London (51.5072 / 0.1276)

No passes found over London.
YAHSAT 1B